Stations météo

réclame
Mon MeteoGroup
Walney Island, Grande-Bretagne (3214): Température de l'air & dewpoint: 12.02.2019 16:00:00 - 18.02.2019 16:00:00 (GMT)Walney Island, Grande-Bretagne (3214): Température de l'air -20cm & Température de l'air -100cm: 12.02.2019 16:00:00 - 18.02.2019 16:00:00 (GMT)Walney Island, Grande-Bretagne (3214): Vitesse du vent & gusts: 12.02.2019 16:00:00 - 18.02.2019 16:00:00 (GMT)Walney Island, Grande-Bretagne (3214): Direction du vent: 12.02.2019 16:00:00 - 18.02.2019 16:00:00 (GMT)Walney Island, Grande-Bretagne (3214): reduced air pressure: 12.02.2019 16:00:00 - 18.02.2019 16:00:00 (GMT)Walney Island, Grande-Bretagne (3214): visibility: 12.02.2019 16:00:00 - 18.02.2019 16:00:00 (GMT)Walney Island, Grande-Bretagne (3214): Quantités de précipitations: 12.02.2019 16:00:00 - 18.02.2019 16:00:00 (GMT)
Date & Time tt [°C] td [°C] tt -20cm [°C] tt -100cm [°C] ff [km/h] ff [knt] fx [km/h] fx [knt] dd ppp [hPa] vv [km] rr [mm]
18.02.2019 16:00:00 8,3 5,9 - - 22 12 - - SW 1008,1 17 0,0
18.02.2019 15:00:00 7,9 5,3 - - 26 14 - - SSW 1007,8 17 0,0
18.02.2019 14:00:00 8,2 4,8 - - 26 14 - - SW 1007,8 15 0,0
18.02.2019 13:00:00 9,6 5,1 - - 24 13 - - SSW 1008,0 14 0,0
18.02.2019 12:00:00 9,2 5,5 - - 21 11 - - SSW 1008,3 13 0,0
18.02.2019 11:00:00 8,2 5,5 - - 21 11 - - SSW 1008,4 14 0,0
18.02.2019 10:00:00 7,8 6,4 - - 18 10 - - S 1008,4 12 0,0
18.02.2019 09:00:00 7,1 6,1 6,9 7,0 16 9 - - SSW 1008,4 10 0,0
18.02.2019 08:00:00 7,3 6,0 - - 24 13 - - S 1007,8 11 0,2
18.02.2019 07:00:00 7,1 5,9 - - 24 13 - - S 1007,6 12 0,4
18.02.2019 06:00:00 8,2 4,8 - - 24 13 50 27 S 1007,3 18 0,0
18.02.2019 05:00:00 8,3 4,8 - - 29 16 - - S 1007,6 19 0,0
18.02.2019 04:00:00 8,6 5,0 - - 31 17 52 28 S 1007,7 17 0,0
18.02.2019 03:00:00 8,7 5,2 - - 31 17 52 28 S 1008,1 18 0,0
18.02.2019 02:00:00 8,7 5,2 - - 31 17 52 28 S 1008,6 19 0,0
18.02.2019 01:00:00 8,3 5,4 - - 24 13 46 25 S 1008,6 15 0,0
18.02.2019 00:00:00 8,5 5,6 - - 26 14 46 25 S 1008,4 14 0,0
17.02.2019 23:00:00 6,8 4,7 - - 16 9 - - SSE 1008,4 13 0,0
17.02.2019 22:00:00 7,9 4,9 - - 22 12 - - SSE 1008,3 15 0,0
17.02.2019 21:00:00 8,2 4,8 - - 26 14 - - SSE 1008,1 18 0,0
17.02.2019 20:00:00 7,9 4,5 - - 26 14 - - S 1008,2 18 0,0
17.02.2019 19:00:00 7,8 4,1 - - 21 11 - - S 1008,3 21 0,0
17.02.2019 18:00:00 8,3 3,8 - - 18 10 - - S 1008,2 29 0,0
17.02.2019 17:00:00 9,2 4,7 - - 24 13 - - S 1008,0 21 0,0
17.02.2019 16:00:00 9,1 5,9 - - 18 10 - - SSE 1008,0 16 0,0
17.02.2019 15:00:00 10,4 6,4 - - 21 11 - - SSW 1008,0 14 0,0
17.02.2019 14:00:00 10,5 6,9 - - 26 14 - - SSW 1007,8 19 0,0
17.02.2019 13:00:00 9,8 6,5 - - 22 12 - - S 1008,0 24 0,0
17.02.2019 12:00:00 9,4 5,8 - - 28 15 - - SSE 1007,9 17 -
17.02.2019 11:00:00 8,8 5,6 - - 26 14 - - SSE 1007,6 18 -
17.02.2019 10:00:00 8,5 5,8 - - 28 15 46 25 SSE 1007,3 15 0,0
17.02.2019 09:00:00 8,5 5,9 6,7 6,9 31 17 48 26 SSE 1007,0 19 0,0
17.02.2019 08:00:00 8,5 6,5 - - 29 16 - - ESE 1007,1 17 0,0
17.02.2019 07:00:00 8,6 6,8 - - 29 16 - - SE 1007,4 17 0,0
17.02.2019 06:00:00 8,5 6,8 - - 35 19 46 25 SE 1008,2 23 0,0
17.02.2019 05:00:00 8,5 6,7 - - 34 18 50 27 SE 1009,2 21 0,0
17.02.2019 04:00:00 8,8 6,5 - - 31 17 46 25 SE 1009,9 24 0,0
17.02.2019 03:00:00 8,8 6,6 - - 29 16 - - SE 1010,8 22 0,0
17.02.2019 02:00:00 9,2 7,1 - - 21 11 - - SE 1011,7 19 0,0
17.02.2019 01:00:00 9,6 7,6 - - 24 13 - - SSE 1012,5 20 0,0
17.02.2019 00:00:00 10,1 8,5 - - 24 13 - - SSE 1012,9 16 0,0
16.02.2019 23:00:00 10,5 8,5 - - 26 14 46 25 SSE 1013,3 22 0,0
16.02.2019 22:00:00 10,4 8,5 - - 28 15 - - SSE 1013,7 40 0,0
16.02.2019 21:00:00 10,3 8,6 - - 26 14 - - SSE 1014,0 23 0,0
16.02.2019 20:00:00 9,6 8,2 - - 26 14 - - SSE 1014,6 13 0,0
16.02.2019 19:00:00 8,9 7,2 - - 16 9 - - SSE 1015,1 6 0,0
16.02.2019 18:00:00 9,9 6,7 - - 16 9 - - S 1015,5 35 0,0
16.02.2019 17:00:00 9,0 5,6 - - 15 8 - - SSE 1015,3 30 0,0
16.02.2019 16:00:00 10,4 5,6 - - 13 7 - - S 1016,1 28 0,0
16.02.2019 15:00:00 11,1 6,1 - - 15 8 - - SSW 1016,7 35 0,0
16.02.2019 14:00:00 10,5 6,1 - - 16 9 - - S 1017,2 35 0,0
16.02.2019 13:00:00 10,5 6,6 - - 18 10 - - S 1017,9 21 0,0
16.02.2019 12:00:00 9,5 6,9 - - 18 10 - - S 1018,5 17 0,0
16.02.2019 11:00:00 9,4 6,6 - - 22 12 - - SSW 1018,2 15 0,0
16.02.2019 10:00:00 9,1 7,0 - - 16 9 - - SSW 1017,8 13 0,0
16.02.2019 09:00:00 8,2 6,7 6,4 6,7 15 8 - - SSW 1017,9 13 0,0
16.02.2019 08:00:00 8,1 6,7 - - 21 11 - - SSW 1017,4 12 0,0
16.02.2019 07:00:00 8,1 6,6 - - 22 12 - - SSW 1016,9 12 0,0
16.02.2019 06:00:00 8,3 6,0 - - 21 11 - - SSW 1016,6 14 0,0
16.02.2019 05:00:00 8,3 6,5 - - 16 9 - - S 1016,2 14 0,0
16.02.2019 04:00:00 8,4 6,6 - - 21 11 - - SW 1016,0 10 0,0
16.02.2019 03:00:00 8,4 6,5 - - 21 11 46 25 SSW 1016,5 11 0,0
16.02.2019 02:00:00 8,7 7,7 - - 22 12 - - SSW 1016,6 10 0,0
16.02.2019 01:00:00 9,3 8,1 - - 29 16 - - SSW 1016,4 14 0,0
16.02.2019 00:00:00 9,6 8,1 - - 22 12 - - S 1016,3 18 0,0
15.02.2019 23:00:00 9,5 5,6 - - 18 10 - - SSE 1017,0 18 0,0
15.02.2019 22:00:00 9,1 5,3 - - 22 12 - - SE 1017,0 19 0,0
15.02.2019 21:00:00 9,1 5,5 - - 22 12 - - SE 1017,4 16 0,0
15.02.2019 20:00:00 9,0 5,4 - - 24 13 - - SE 1017,4 14 0,0
15.02.2019 19:00:00 9,5 5,5 - - 22 12 - - SE 1018,4 16 0,0
15.02.2019 18:00:00 9,4 5,1 - - 21 11 - - SE 1018,8 15 0,0
15.02.2019 17:00:00 9,7 5,3 - - 21 11 - - ESE 1018,6 17 0,0
15.02.2019 16:00:00 11,4 5,3 - - 21 11 - - ESE 1019,1 19 0,0
15.02.2019 15:00:00 11,8 5,4 - - 16 9 - - SE 1019,9 18 0,0
15.02.2019 14:00:00 10,6 4,7 - - 16 9 - - E 1020,7 12 0,0
15.02.2019 13:00:00 10,0 4,3 - - 16 9 - - ESE 1021,9 15 0,0
15.02.2019 12:00:00 8,4 3,6 - - 22 12 - - SE 1022,6 13 0,0
15.02.2019 11:00:00 7,2 2,6 - - 18 10 - - ESE 1023,1 17 0,0
15.02.2019 10:00:00 6,2 2,3 - - 24 13 - - ESE 1023,5 14 0,0
15.02.2019 09:00:00 5,0 2,4 6,2 6,7 18 10 - - ESE 1024,1 14 0,0
15.02.2019 08:00:00 3,5 2,0 - - 15 8 - - ESE 1024,3 12 0,0
15.02.2019 07:00:00 3,5 2,1 - - 15 8 - - SE 1024,1 10 0,0
15.02.2019 06:00:00 4,1 2,6 - - 16 9 - - ESE 1024,4 11 0,0
15.02.2019 05:00:00 4,2 2,7 - - 15 8 - - ESE 1024,5 10 0,0
15.02.2019 04:00:00 5,1 3,2 - - 18 10 - - SE 1024,7 12 0,0
15.02.2019 03:00:00 5,5 3,4 - - 16 9 - - ESE 1025,1 15 0,0
15.02.2019 02:00:00 5,7 3,8 - - 16 9 - - ESE 1025,4 12 0,0
15.02.2019 01:00:00 6,1 3,8 - - 15 8 - - ESE 1026,1 12 0,0
15.02.2019 00:00:00 6,5 3,5 - - 16 9 - - ESE 1026,3 16 0,0
14.02.2019 23:00:00 6,7 3,1 - - 18 10 - - ESE 1026,6 25 0,0
14.02.2019 22:00:00 6,9 2,7 - - 15 8 - - ESE 1026,7 26 0,0
14.02.2019 21:00:00 7,8 2,8 - - 16 9 - - ESE 1026,9 26 0,0
14.02.2019 20:00:00 7,4 2,8 - - 11 6 - - E 1027,3 25 0,0
14.02.2019 19:00:00 6,9 3,0 - - 11 6 - - ESE 1027,4 19 0,0
14.02.2019 18:00:00 6,9 3,1 - - 9 5 - - ESE 1027,6 20 0,0
14.02.2019 17:00:00 8,4 3,4 - - 9 5 - - E 1027,6 19 0,0
14.02.2019 16:00:00 9,4 3,6 - - 9 5 - - E 1027,8 22 0,0
14.02.2019 15:00:00 10,0 3,6 - - 11 6 - - SE 1028,3 30 0,0
14.02.2019 14:00:00 9,1 4,0 - - 15 8 - - SE 1028,8 20 0,0
14.02.2019 13:00:00 8,8 4,5 - - 18 10 - - SE 1029,3 30 0,0
14.02.2019 12:00:00 7,6 4,4 - - 18 10 - - SE 1029,7 19 0,0
14.02.2019 11:00:00 6,9 4,3 - - 16 9 - - ESE 1030,0 18 0,0
14.02.2019 10:00:00 5,5 4,1 - - 16 9 - - ESE 1029,8 13 0,0
14.02.2019 09:00:00 5,3 4,1 6,2 6,7 18 10 - - ESE 1030,0 12 0,0
14.02.2019 08:00:00 5,0 3,8 - - 18 10 - - SSE 1029,6 14 0,0
14.02.2019 07:00:00 5,6 4,3 - - 9 5 - - SE 1029,2 16 0,0
14.02.2019 06:00:00 6,6 4,9 - - 11 6 - - S 1029,0 23 0,0
14.02.2019 05:00:00 6,6 4,8 - - 8 4 - - ESE 1028,8 19 0,0
14.02.2019 04:00:00 8,0 5,7 - - 15 8 - - SSW 1028,7 15 0,0
14.02.2019 03:00:00 8,0 5,4 - - 21 11 - - S 1028,6 17 0,0
14.02.2019 02:00:00 7,6 5,3 - - 16 9 - - S 1028,6 18 0,0
14.02.2019 01:00:00 7,7 5,5 - - 13 7 - - S 1028,8 20 0,0
14.02.2019 00:00:00 8,6 5,7 - - 21 11 - - SW 1028,5 18 0,0
13.02.2019 23:00:00 7,7 5,2 - - 16 9 - - S 1028,5 16 0,0
13.02.2019 22:00:00 7,1 4,9 - - 13 7 - - SE 1028,1 17 0,0
13.02.2019 21:00:00 8,4 5,1 - - 24 13 - - S 1027,7 19 0,0
13.02.2019 20:00:00 8,3 5,3 - - 15 8 - - S 1027,9 17 0,0
13.02.2019 19:00:00 8,1 5,2 - - 11 6 - - SSE 1028,2 22 0,0
13.02.2019 18:00:00 8,2 5,3 - - 15 8 - - S 1027,6 17 0,0
13.02.2019 17:00:00 8,3 5,5 - - 18 10 - - S 1027,3 15 0,0
13.02.2019 16:00:00 8,6 5,7 - - 22 12 - - S 1027,3 17 0,0
13.02.2019 15:00:00 8,5 6,0 - - 21 11 - - SSW 1027,5 13 0,0
13.02.2019 14:00:00 8,4 6,0 - - 15 8 - - SSW 1027,9 17 0,0
13.02.2019 13:00:00 8,4 6,0 - - 21 11 - - SSW 1028,1 17 0,0
13.02.2019 12:00:00 8,6 6,2 - - 18 10 - - SSW 1028,1 17 0,0
13.02.2019 11:00:00 8,6 6,0 - - 21 11 - - SSW 1027,5 24 0,0
13.02.2019 10:00:00 8,6 5,9 - - 21 11 - - SSW 1027,5 25 0,0
13.02.2019 09:00:00 8,3 6,0 6,0 6,7 24 13 - - SSW 1027,1 20 0,0
13.02.2019 08:00:00 7,9 5,8 - - 18 10 - - S 1027,3 20 0,0
13.02.2019 07:00:00 8,1 6,1 - - 18 10 - - SSW 1027,5 19 0,0
13.02.2019 06:00:00 8,2 6,4 - - 22 12 - - SSW 1027,8 16 0,0
13.02.2019 05:00:00 8,2 6,5 - - 21 11 - - S 1028,0 25 0,0
13.02.2019 04:00:00 8,1 6,8 - - 22 12 - - SSW 1028,0 19 0,0
13.02.2019 03:00:00 7,9 7,5 - - 18 10 - - SSW 1028,4 14 0,0
13.02.2019 02:00:00 8,3 8,0 - - 24 13 - - SSW 1028,5 10 0,0
13.02.2019 01:00:00 8,0 7,8 - - 16 9 - - S 1028,6 10 0,0
13.02.2019 00:00:00 8,2 8,1 - - 22 12 - - SW 1028,4 9 0,0
12.02.2019 23:00:00 8,0 7,9 - - 21 11 - - SSW 1028,4 3,0 0,0
12.02.2019 22:00:00 8,0 7,8 - - 18 10 - - SSW 1028,4 5 0,0
12.02.2019 21:00:00 8,0 7,8 - - 18 10 - - SSW 1028,2 5 0,0
12.02.2019 20:00:00 8,1 7,9 - - 15 8 - - SW 1028,4 6 0,0
12.02.2019 19:00:00 8,1 7,9 - - 18 10 - - SW 1028,2 6 0,0
12.02.2019 18:00:00 8,3 8,0 - - 21 11 - - SW 1028,2 6 0,0
12.02.2019 17:00:00 8,6 8,1 - - 26 14 - - SW 1027,7 9 0,0
12.02.2019 16:00:00 8,5 8,1 - - 24 13 - - SW 1027,3 10 0,0

tt = Température de l'air
td = dewpoint
tt -20cm = Température de l'air -20cm
tt -100cm = Température de l'air -100cm
ff = Vitesse du vent
fx = gusts
dd = Direction du vent
ppp = reduced air pressure
vv = visibility
rr = Quantités de précipitations

stations d'obs. à proximité